Change the Weather History Date:

Friday, February 8, 2013

  Actual Average Record
Temperature  
Mean Temperature 65 °F -  
Max Temperature 73 °F 62 °F 75 °F (1963)
Min Temperature 57 °F 44 °F 28 °F (1971)
Growing Degree Days 15 (Base 50)    
Moisture  
Dew Point 56 °F    
Average Humidity 77    
Maximum Humidity 100    
Minimum Humidity 41    
Precipitation  
Precipitation 0.00 in - - ()
Sea Level Pressure  
Sea Level Pressure 30.09 in    
Wind  
Wind Speed 8 mph (NE)    
Max Wind Speed 21 mph    
Max Gust Speed 26 mph    
Visibility 8 miles    
Events Fog    
Averages and records for this station are not official NWS values.
T = Trace of Precipitation, MM = Missing Value Source: NWS Daily Summary

Daily Weather History Graph

Daily Weather History Graph

Search for Another Location

Airport or City:

Trip Planner

Search our weather history database for the weather conditions in past years. The results will help you decide how hot, cold, wet, or windy it might be!

Date:

Astronomy

Feb. 08, 2013 Rise Set
Actual Time 7:10 AM CST 6:14 PM CST
Civil Twilight 6:46 AM CST 6:38 PM CST
Nautical Twilight 6:18 AM CST 7:06 PM CST
Astronomical Twilight 5:51 AM CST 7:33 PM CST
Moon 5:36 AM CST (2/8) 4:51 PM CST (2/8)
Length of Visible Light 11h 51m
Length of Day
11h 03m
Waning Crescent, 3% of the Moon is Illuminated
Feb 8
Waning Crescent
Feb 10
New
Feb 17
First Quarter
Feb 25
Full
Mar 4
Last Quarter

Hourly Weather History & Observations

Time (CST) Temp. Dew Point Humidity Pressure Visibility Wind Dir Wind Speed Gust Speed Precip Events Conditions
12:04 AM 60.8 °F 59.0 °F 94% 30.00 in 0.5 mi Calm Calm - N/A Fog Fog
12:53 AM 60.1 °F 59.0 °F 96% 30.01 in 0.2 mi Calm Calm - N/A Fog Fog
1:46 AM 64.4 °F 62.6 °F 94% 30.03 in 1.2 mi NNW 5.8 mph - N/A   Overcast
1:50 AM 64.4 °F 64.4 °F 100% 30.03 in 0.8 mi NW 4.6 mph - N/A   Mist
1:53 AM 64.9 °F 64.0 °F 97% 30.04 in 0.5 mi NNW 3.5 mph - N/A Fog Fog
2:46 AM 64.4 °F 62.6 °F 94% 30.04 in 1.2 mi NNW 11.5 mph - N/A   Overcast
2:50 AM 64.4 °F 62.6 °F 94% 30.04 in 3.0 mi NNW 12.7 mph - N/A   Overcast
2:53 AM 64.0 °F 63.0 °F 96% 30.04 in 5.0 mi NNW 12.7 mph - N/A   Overcast
3:08 AM 60.8 °F 60.8 °F 100% 30.04 in 10.0 mi North 13.8 mph - N/A   Mostly Cloudy
3:53 AM 62.1 °F 54.0 °F 75% 30.06 in 10.0 mi North 16.1 mph - N/A   Clear
4:53 AM 60.1 °F 54.0 °F 80% 30.09 in 10.0 mi North 12.7 mph - N/A   Clear
5:53 AM 57.9 °F 52.0 °F 81% 30.12 in 10.0 mi North 10.4 mph - N/A   Clear
6:53 AM 57.0 °F 50.0 °F 77% 30.14 in 10.0 mi North 20.7 mph 26.5 mph N/A   Clear
7:53 AM 57.0 °F 50.0 °F 77% 30.16 in 10.0 mi North 13.8 mph 21.9 mph N/A   Clear
8:53 AM 57.9 °F 50.0 °F 75% 30.18 in 10.0 mi North 16.1 mph 24.2 mph N/A   Clear
9:53 AM 62.1 °F 50.0 °F 65% 30.19 in 10.0 mi NNE 12.7 mph - N/A   Clear
11:53 AM 68.0 °F 51.1 °F 55% 30.18 in 10.0 mi NE 15.0 mph - N/A   Clear
12:53 PM 68.0 °F 48.9 °F 50% 30.14 in 10.0 mi NNE 11.5 mph - N/A   Clear
1:53 PM 72.0 °F 48.0 °F 43% 30.12 in 10.0 mi NE 11.5 mph 20.7 mph N/A   Clear
2:53 PM 73.0 °F 48.0 °F 41% 30.11 in 10.0 mi ENE 9.2 mph - N/A   Clear
3:53 PM 73.0 °F 48.9 °F 42% 30.09 in 10.0 mi NE 8.1 mph - N/A   Clear
4:53 PM 69.1 °F 53.1 °F 57% 30.10 in 10.0 mi East 9.2 mph - N/A   Clear
5:53 PM 66.0 °F 55.0 °F 68% 30.10 in 10.0 mi SE 6.9 mph - N/A   Clear
6:53 PM 64.0 °F 55.0 °F 73% 30.10 in 10.0 mi ESE 8.1 mph - N/A   Scattered Clouds
7:53 PM 62.1 °F 57.0 °F 84% 30.11 in 10.0 mi ESE 8.1 mph - N/A   Scattered Clouds
8:53 PM 62.1 °F 55.9 °F 80% 30.11 in 10.0 mi ESE 10.4 mph - N/A   Clear
9:53 PM 62.1 °F 57.9 °F 86% 30.11 in 10.0 mi ESE 10.4 mph - N/A   Clear
10:53 PM 62.1 °F 57.9 °F 86% 30.11 in 10.0 mi ESE 12.7 mph - N/A   Clear
11:53 PM 62.1 °F 57.9 °F 86% 30.09 in 10.0 mi East 12.7 mph - N/A   Clear